Retour au catalogue

STARLINK-4074

ActifCommunicationsVLEO
NORAD 52678·PAYLOAD·🇺🇸 United States

Lancé May 18, 2022 depuis Cape Canaveral Space Force Station

Loading…

Prochains Passages (prochaines 24 heures)

TLE

FraisSource: CelesTrak SupGP

Époque: Sep 14, 2026, 21:37 UTC

1 52678C 22053Y   26257.90118056 -.00022708  00000+0 -73045-3 0  2571
2 52678  53.1610   8.8905 0001021  78.7911 178.8740 15.31704434    11

Suivez STARLINK-4074 en temps réel avec AllMySat

Download on the App Store